Preview of NWS' New Version of Forecast
This preview is not operational and should not be used for support decisions.

Regional Weather Roundup (RWR)

Issued by Philadelphia/Mt Holly (PHI)

                            
000
ASUS41 KPHI 190011
RWRPHI

REGIONAL WEATHER ROUNDUP
NATIONAL WEATHER SERVICE MOUNT HOLLY NJ
700 PM EST FRI JAN 18 2019

NOTE:  "FAIR" INDICATES FEW OR NO CLOUDS BELOW 12,000 FEET WITH NO
SIGNIFICANT WEATHER AND/OR OBSTRUCTIONS TO VISIBILITY.

 * = STATION DOES NOT REPORT PRECIPITATION (E.G. RAIN, SNOW, ETC.) 
        OR FOG.

NJZ015>026-190100-
SOUTHERN NEW JERSEY
  
CITY           SKY/WX    TMP DP  RH WIND       PRES   REMARKS
POMONA         CLOUDY    34  34 100 N3        30.12S                  
6HR MIN TEMP:  34; 6HR MAX TEMP:  39;                                

WILDWOOD*      FAIR      37  33  85 NW3       30.15R                  
MILLVILLE      FAIR      30  28  92 W3        30.13R FOG              
WRIGHTSTOWN    FAIR      32  31  97 CALM      30.09S                  
MOUNT HOLLY    FAIR      31  28  89 CALM      30.12F FOG              
TRENTON        FAIR      33  30  88 SW3       30.10S FOG              
6HR MIN TEMP:  33; 6HR MAX TEMP:  36;                                


$$
NJZ001>014-190100-
NORTHERN NEW JERSEY
  
CITY           SKY/WX    TMP DP  RH WIND       PRES   REMARKS
SUSSEX         CLOUDY    31  29  92 CALM      30.08R                  
ANDOVER*         N/A     29  27  92 CALM      30.09R                  
MORRISTOWN     PTCLDY    32  30  93 W3        30.11R                  
NEWARK         MOCLDY    34  30  85 W9        30.11R WCI  27          
TETERBORO      FAIR      36  31  82 VRB6      30.09R WCI  31          
CALDWELL       FAIR      32  31  96 CALM      30.11R                  
SOMERVILLE     FAIR      30  28  92 CALM      30.10R FOG              
ALLAIRE*       CLOUDY    34  31  88 W6        30.12R WCI  29          
TOMS RIVER*    CLOUDY    35  33  92 NW8       30.12R WCI  29          

$$
PAZ043-044-047-054-055-060>062-066>071-190100-
EASTERN PENNSYLVANIA
  
CITY           SKY/WX    TMP DP  RH WIND       PRES   REMARKS
PHILADELPHIA   MOCLDY    36  30  79 NW6       30.14R WCI  31          
6HR MIN TEMP:  34; 6HR MAX TEMP:  38;                                

NORTH PHILA    FAIR      35  30  82 W3        30.13S HAZE             
BLUE BELL*     FAIR      30  30 100 CALM      30.13R                  
DOYLESTOWN     FAIR      31  27  85 CALM      30.09S                  
QUAKERTOWN*    PTCLDY    27  27 100 CALM      30.11  FOG              
PERKASIE*      FAIR      28  28 100 CALM      30.10S FOG              
POTTSTOWN      MOCLDY    29  28  96 CALM      30.13R FOG              
LANCASTER      CLOUDY    33  30  88 W3        30.13R FOG              
COATESVILLE    FAIR      30  30 100 CALM      30.12R FOG              
READING        CLOUDY    34  32  92 CALM      30.11R FOG              
6HR MIN TEMP:  32; 6HR MAX TEMP:  35;                                

ALLENTOWN      MOCLDY    32  27  81 SW5       30.10R WCI  27          
6HR MIN TEMP:  30; 6HR MAX TEMP:  36;                                

MOUNT POCONO   CLOUDY    29  27  92 NW10      30.03R WCI  20          
6HR MIN TEMP:  29; 6HR MAX TEMP:  31;                                

HAZLETON       CLOUDY   N/A N/A N/A W5        30.08R HAZE             
LEHIGHTON      CLOUDY    36  30  80 NW3       30.10R                  
WILKES BARRE   CLOUDY    32  28  85 SW5       30.09R FOG     WCI  27  

$$
DEZALL-MDZ008-012-015-019-020-190100-
DELAWARE AND EASTERN MARYLAND
  
CITY           SKY/WX    TMP DP  RH WIND       PRES   REMARKS
WILMINGTON     FAIR      34  30  85 W3        30.15R                  
6HR MIN TEMP:  34; 6HR MAX TEMP:  39;                                

DOVER          FAIR      34  31  89 W3        30.14R                  
GEORGETOWN     FAIR      38  33  82 CALM      30.15R                  
6HR MIN TEMP:  38; 6HR MAX TEMP:  47;                                

EASTON         PTCLDY    36  34  93 CALM      30.19R FOG              
ABERDEEN       CLOUDY    32  32 100 SW5       30.15  WCI  27          
PATUXENT       FAIR      36  35  96 CALM      30.15                   
OCEAN CITY     FAIR      37  34  89 NW5       30.15R WCI  33          
WALLOPS ISLAND FAIR      40  34  79 CALM      30.15R                  
CAMBRIDGE      CLEAR     32  32 100 CALM      30.16R FOG              
SALISBURY      FAIR      37  34  89 NW5       30.15R WCI  33          

$$
PAZ001-021-NYZ056-072-MDZ011-DCZ001-190100-
OTHER NEARBY LOCATIONS
  
CITY           SKY/WX    TMP DP  RH WIND       PRES   REMARKS
HARRISBURG     CLOUDY    35  30  82 NW7       30.13R FOG     WCI  29  
STATE COLLEGE  CLOUDY    34  27  75 NW7       30.14R WCI  28          
WILLIAMSPORT   CLOUDY    33  29  85 NW5       30.14R FOG     WCI  29  
BINGHAMTON     CLOUDY    28  21  75 NW14G22   30.07R WCI  17          
NEW YORK CITY  FAIR      36  30  79 MISG      30.11S                  
BALTIMORE      MOCLDY    37  35  92 CALM      30.14R                  
WASHINGTON DC  FAIR      39  34  82 W3        30.16R                  

$$